This is the latest recevied weather packets stored in our database for station/object KC5DAQ-25. If no packets are shown the sender has not sent any weather packets the latest 10 day(s).
| Time | Temp. | Humidity | Pressure | Rain* | Wind** | Luminosity | Snow |
|---|---|---|---|---|---|---|---|
| 1777913404 | 25.56° C | 69% | 1006.7 hPa | 0 mm | - | 1162 W/m² | - |
| 1777913344 | 25.56° C | 66% | 1006.7 hPa | 0 mm | - | 1176 W/m² | - |
| 1777913285 | 25.56° C | 69% | 1006.7 hPa | 0 mm | - | 1176 W/m² | - |
| 1777913224 | 25.56° C | 68% | 1006.7 hPa | 0 mm | - | 1231 W/m² | - |
| 1777913166 | 25° C | 68% | 1006.6 hPa | 0 mm | - | 1231 W/m² | - |
| 1777913102 | 25° C | 68% | 1006.7 hPa | 0 mm | - | 1231 W/m² | - |
| 1777913044 | 25° C | 68% | 1006.8 hPa | 0 mm | - | 1231 W/m² | - |
| 1777912983 | 25° C | 69% | 1006.8 hPa | 0 mm | - | 1231 W/m² | - |
| 1777912923 | 25° C | 69% | 1006.8 hPa | 0 mm | - | 997 W/m² | - |
| 1777912862 | 25° C | 69% | 1006.7 hPa | 0 mm | - | 997 W/m² | - |
| 1777912804 | 25° C | 69% | 1006.8 hPa | 0 mm | - | 997 W/m² | - |
| 1777912744 | 24.44° C | 69% | 1006.9 hPa | 0 mm | - | 997 W/m² | - |
| 1777912682 | 24.44° C | 69% | 1006.9 hPa | 0 mm | - | 997 W/m² | - |
| 1777912623 | 24.44° C | 68% | 1006.9 hPa | 0 mm | - | 1134 W/m² | - |
| 1777912564 | 24.44° C | 68% | 1006.9 hPa | 0 mm | - | 1134 W/m² | - |
| 1777912503 | 24.44° C | 70% | 1006.9 hPa | 0 mm | - | 1051 W/m² | - |
| 1777912443 | 24.44° C | 70% | 1006.9 hPa | 0 mm | - | 1051 W/m² | - |
| 1777912382 | 24.44° C | 70% | 1006.9 hPa | 0 mm | - | 1182 W/m² | - |
| 1777912323 | 24.44° C | 69% | 1006.9 hPa | 0 mm | - | 1182 W/m² | - |
| 1777912264 | 24.44° C | 69% | 1006.9 hPa | 0 mm | - | 283 W/m² | - |
| 1777912204 | 24.44° C | 69% | 1007 hPa | 0 mm | - | 283 W/m² | - |
| 1777912143 | 24.44° C | 69% | 1007.1 hPa | 0 mm | - | 730 W/m² | - |
| 1777912081 | 24.44° C | 69% | 1007 hPa | 0 mm | - | 730 W/m² | - |
| 1777912020 | 24.44° C | 69% | 1007.1 hPa | 0 mm | - | 730 W/m² | - |
| 1777911960 | 24.44° C | 68% | 1007.1 hPa | 0 mm | - | 730 W/m² | - |
* Rain latest hour (hover to see other rain measurements)
** Current wind speed in m/s (hover to see current wind gust speed)